Theta_e
295 295 296 297 299 302 304 303 303 304 301 295 294 297 297 297 297 297 297 297 297 300 300 300 300 300 301 300 302 302 305 302 303 311 314 316 313 314 312 314 314 312 310 315 316 317 314 312 314 317 312 309 309 310
295 295 295 296 299 302 303 303 304 304 301 295 294 297 297 297 297 298 298 297 298 298 298 299 299 299 300 300 300 301 305 306 306 308 310 308 308 308 312 311 311 310 310 314 315 309 310 311 312 310 308 310 310 310
295 295 295 296 299 302 303 303 304 304 301 295 294 296 297 297 297 297 297 297 298 299 298 297 299 300 302 301 300 301 300 302 304 305 304 308 311 306 309 308 311 310 308 310 314 313 314 312 311 311 309 309 308 306
296 295 295 296 299 303 303 303 304 303 300 293 294 296 297 297 297 298 299 298 298 298 300 299 300 300 300 300 301 301 303 305 305 306 307 309 310 307 310 311 309 309 309 312 313 314 311 312 311 310 310 308 307 306
296 296 296 297 299 303 303 303 304 303 298 292 295 297 297 297 298 297 296 298 297 298 300 299 299 301 301 301 302 303 303 306 308 309 309 309 309 308 306 306 308 309 310 313 316 312 311 310 310 310 309 309 308 306
296 296 296 297 300 303 303 303 304 303 296 291 296 297 297 296 297 296 296 300 299 298 300 302 298 299 302 304 304 305 305 305 308 309 309 307 304 308 309 309 308 308 310 313 313 312 311 311 310 310 309 307 306 305
297 297 296 297 301 303 303 304 303 300 292 290 295 296 296 296 297 297 296 300 300 298 301 300 301 299 302 306 307 306 307 307 308 309 309 309 308 307 310 310 307 306 308 310 313 314 313 310 308 306 306 306 304 303
298 297 296 298 302 303 303 303 302 294 290 290 292 295 296 297 297 297 301 304 301 299 301 301 300 300 304 307 310 311 310 309 309 309 309 309 309 309 311 308 308 312 314 314 313 308 306 306 305 305 305 303 303 303
298 297 297 300 303 303 303 303 295 290 290 291 296 298 299 298 300 302 304 303 300 301 304 303 305 302 301 303 305 311 310 311 309 310 309 309 311 310 310 310 315 315 313 311 307 306 305 305 305 305 305 303 302 303
299 298 297 301 303 303 303 297 290 290 290 296 299 301 304 303 303 301 302 303 301 302 301 304 302 305 302 302 302 305 309 311 312 309 309 310 312 310 311 310 313 313 313 307 306 306 305 305 305 305 304 302 302 302
299 298 299 302 303 303 300 291 291 290 294 294 294 295 295 298 298 297 301 305 304 303 302 300 301 305 303 306 307 302 305 312 316 313 314 316 315 312 314 316 313 313 307 305 305 305 304 304 305 304 303 302 302 301
300 299 300 302 302 301 294 292 291 290 292 292 293 294 297 299 299 300 302 307 307 308 305 304 304 304 303 308 311 307 311 314 315 312 316 316 311 313 314 314 314 311 305 305 305 304 304 304 304 303 302 302 301 300
299 299 301 302 301 298 291 292 292 291 294 297 296 298 299 299 298 304 306 306 306 306 306 304 304 302 305 307 306 310 312 312 312 315 318 314 309 309 309 313 313 310 306 305 305 304 303 303 303 302 301 300 300 299
300 300 301 300 299 291 291 291 291 293 296 299 302 296 301 303 304 304 303 302 299 302 298 299 302 303 306 308 309 310 310 311 316 314 313 309 304 305 308 313 312 311 306 306 306 305 304 304 303 301 300 299 299 298
301 301 299 297 294 290 291 291 293 295 297 300 299 295 300 301 298 298 297 296 297 297 297 297 299 302 305 306 307 308 311 309 310 309 306 303 302 308 314 314 312 311 306 306 306 305 304 304 302 301 300 298 298 297
300 297 295 296 291 291 291 292 295 297 298 297 298 297 297 298 297 296 296 298 297 297 298 301 305 307 307 306 307 307 307 307 305 303 301 301 304 308 312 311 313 312 309 305 306 306 305 304 302 301 299 298 297 297
297 294 296 291 292 291 291 295 298 298 298 299 298 297 296 297 297 297 298 300 298 298 301 303 307 308 306 305 304 304 303 302 300 301 301 303 302 305 309 311 312 313 312 308 307 307 306 304 303 301 299 299 297 296
293 295 291 291 291 293 295 295 298 299 299 298 298 297 297 297 299 300 300 299 300 300 300 304 303 302 303 302 301 300 300 300 299 300 301 300 301 302 306 307 312 312 311 309 306 305 305 305 303 301 300 299 298 297
296 295 293 291 294 297 299 299 298 300 299 298 298 297 298 300 299 299 299 300 300 300 300 301 299 301 301 301 300 300 299 298 297 298 301 300 300 300 303 305 308 311 311 311 307 304 303 304 304 303 302 299 298 297
294 295 293 291 294 297 300 299 299 298 299 299 297 297 299 299 298 297 297 296 296 296 297 298 299 300 300 299 299 298 297 296 297 298 298 298 298 298 300 302 303 307 311 311 310 307 302 301 302 303 302 300 298 297
294 292 292 291 292 295 298 299 298 299 298 298 297 299 300 298 297 297 296 295 295 297 298 298 297 297 297 297 296 296 296 296 296 297 297 297 296 296 297 299 300 300 302 306 309 311 304 301 301 302 302 300 298 298
293 292 291 293 297 299 298 298 298 297 297 298 298 298 301 301 298 296 295 295 296 296 296 296 296 296 297 296 295 295 295 295 296 296 296 296 296 296 296 296 297 298 298 299 300 311 309 302 301 302 302 301 300 299
294 295 296 297 298 297 296 297 299 298 299 300 299 300 301 300 298 296 296 294 298 294 294 295 294 294 295 295 294 294 294 294 296 296 295 295 294 295 295 295 296 297 297 297 298 304 309 308 302 302 302 302 301 300
295 297 299 299 297 296 298 298 299 300 299 298 299 302 301 300 299 299 297 296 295 294 294 294 294 294 295 295 294 294 294 294 295 296 295 295 294 294 294 295 295 295 295 296 298 300 303 306 307 302 301 302 302 301
294 295 295 295 298 298 300 300 301 300 300 300 300 301 301 299 297 299 296 294 292 294 293 293 293 294 295 295 294 293 293 294 293 295 295 294 293 293 294 294 295 295 295 295 296 297 299 301 303 308 307 302 301 301
294 295 296 298 299 300 299 301 300 300 300 300 299 301 301 298 298 297 297 292 290 294 293 293 294 294 294 294 293 292 292 291 291 293 294 294 293 293 293 294 295 294 294 294 294 295 296 297 298 302 306 307 302 301
296 296 296 297 298 299 300 300 299 298 300 299 298 301 302 300 299 296 295 292 290 293 292 292 293 293 293 293 292 289 289 289 289 290 291 290 290 290 290 292 292 293 293 292 292 292 293 294 296 298 300 304 304 301
296 297 297 297 298 299 300 300 300 300 299 298 299 302 299 296 297 296 294 293 292 292 292 292 292 292 292 292 290 288 287 286 286 288 288 287 287 288 289 289 290 291 291 290 290 290 290 291 293 295 297 300 306 302
297 297 298 299 299 300 300 301 300 298 298 298 300 299 295 295 294 293 293 293 293 292 292 291 291 291 291 291 288 287 286 285 285 284 285 285 285 285 287 288 288 288 288 288 289 289 289 290 291 294 296 301 307 308
297 298 299 301 300 300 299 298 298 296 295 294 293 293 293 291 292 293 292 291 291 290 290 290 290 290 290 290 288 286 285 285 284 284 283 284 284 284 286 287 286 286 286 286 286 287 290 290 291 291 292 295 298 305
297 298 300 301 301 300 299 298 297 296 295 293 292 291 290 289 289 290 290 290 289 289 289 289 289 289 289 289 288 286 284 284 283 283 283 283 283 285 286 286 285 284 284 284 284 283 284 285 285 285 286 288 290 293
297 299 300 300 299 299 299 300 298 296 293 292 289 290 289 289 288 287 289 289 289 288 289 290 289 289 288 288 287 286 284 284 284 283 283 283 283 283 285 285 284 283 283 282 282 282 282 282 283 283 283 284 285 289
296 297 298 299 297 300 300 299 300 300 296 294 292 291 291 289 289 288 289 289 289 289 289 289 288 288 287 287 286 285 284 284 283 283 283 283 282 282 282 283 283 282 281 281 280 280 280 280 280 281 281 282 282 283
Wind_Speed
20 18 17 16 15 14 13 15 17 17 17 17 15 13 13 13 12 12 14 9 4 3 12 17 18 12 7 3 4 5 6 4 4 3 2 2 2 3 3 3 4 4 4 3 2 4 7 7 4 5 5 3 5 6
21 19 18 16 15 14 13 15 17 18 18 18 16 14 14 13 13 12 11 13 16 8 7 30 31 32 30 29 10 3 4 4 3 2 2 3 3 3 2 3 4 3 3 2 5 6 4 5 8 10 6 5 4 6
21 19 18 16 15 14 13 14 17 18 18 17 16 15 14 15 13 11 19 17 15 4 9 6 6 12 15 20 23 4 3 6 4 4 2 3 5 1 2 4 3 4 4 3 4 4 8 14 12 5 5 6 7 8
22 20 19 17 15 15 14 15 17 19 19 18 17 15 16 16 14 15 20 18 9 6 4 6 19 24 23 25 17 28 18 4 4 2 2 3 3 4 3 4 9 9 3 5 6 10 13 9 6 6 8 7 9 10
22 20 18 17 16 15 15 16 17 19 19 18 16 15 15 16 17 19 25 18 17 5 3 7 30 12 15 20 14 15 20 8 3 2 3 3 3 3 3 2 4 4 6 3 4 8 8 13 15 8 7 10 13 15
22 21 19 17 16 16 15 17 18 19 19 19 16 15 14 14 14 11 3 9 12 8 3 4 8 9 27 18 11 9 12 3 3 3 2 3 4 1 3 3 6 7 4 4 10 14 13 15 7 4 7 12 17 12
22 21 19 18 17 16 15 18 18 19 19 20 18 16 14 13 10 5 4 2 7 21 2 5 6 5 15 9 5 3 6 2 3 2 3 2 2 3 3 6 14 10 12 14 12 9 8 1 4 6 9 10 13 12
22 19 20 18 17 15 15 17 18 19 21 20 19 17 16 13 14 10 5 7 5 4 2 3 5 5 6 2 2 3 2 2 2 2 2 2 2 3 5 10 8 10 12 11 5 3 2 3 5 8 7 8 12 12
24 19 20 19 16 14 15 16 16 19 20 18 17 16 3 5 4 3 4 4 7 2 1 2 3 4 4 3 3 1 2 2 2 3 3 3 3 5 8 6 6 10 4 5 4 3 3 4 8 11 6 9 10 11
22 18 19 18 16 15 15 12 14 16 16 11 4 2 2 4 2 5 2 1 1 1 0 2 2 4 3 3 3 3 1 2 2 4 3 3 4 10 11 10 9 9 5 4 3 6 6 9 10 11 9 10 9 10
20 19 18 17 17 16 10 9 9 12 5 4 5 2 6 6 2 1 2 2 2 2 2 4 5 4 2 4 3 3 3 3 2 3 3 2 2 7 12 6 4 3 3 4 2 2 4 4 8 10 12 13 13 13
21 19 17 18 18 13 6 5 5 4 4 6 8 7 5 2 2 2 2 2 3 3 3 4 5 3 3 4 2 3 3 2 5 6 3 1 2 13 17 8 5 4 3 5 2 5 6 9 9 8 8 9 9 12
21 17 18 19 16 9 5 4 2 5 5 3 1 1 1 2 2 3 1 1 2 3 2 3 4 3 2 2 3 3 3 4 2 2 2 4 11 17 19 15 7 4 6 5 6 4 2 5 10 12 10 14 15 14
22 18 19 18 12 7 6 4 2 1 1 2 2 3 3 3 4 2 3 3 4 3 4 2 2 3 2 1 1 3 4 4 2 6 4 6 17 20 21 13 1 2 5 4 4 3 2 5 6 13 14 15 15 13
19 19 18 15 11 8 6 5 3 2 2 2 2 2 4 2 1 2 2 2 3 2 3 4 3 2 0 1 1 3 4 5 3 4 5 11 19 18 10 10 10 5 4 1 2 2 2 5 6 9 14 14 16 16
20 18 15 13 11 10 9 7 4 2 2 2 3 2 3 2 4 3 2 2 3 3 3 2 4 4 2 2 4 6 5 4 4 6 9 13 19 18 14 10 12 10 6 3 1 3 4 4 5 7 13 14 15 15
24 6 15 15 14 11 10 6 5 3 2 3 3 3 2 3 4 2 1 2 4 3 2 2 3 5 1 3 4 3 3 5 8 10 10 13 16 16 15 11 11 13 8 5 4 2 5 9 6 8 6 12 13 16
6 18 17 21 18 12 6 5 3 4 5 4 2 4 2 2 2 2 2 2 3 2 2 2 1 5 3 3 3 5 5 6 7 8 9 13 16 17 18 15 14 16 13 9 9 12 11 10 5 2 6 10 11 14
23 22 19 19 14 6 4 5 4 2 4 2 3 3 2 3 1 0 2 5 5 5 3 3 4 3 2 2 4 6 6 7 8 9 9 18 19 20 21 23 21 18 17 14 9 7 13 10 11 10 11 12 10 11
21 20 16 15 10 2 3 3 6 2 2 3 1 2 3 3 1 3 4 4 3 3 4 3 2 2 2 2 4 4 5 6 6 8 9 11 21 23 21 20 18 21 15 13 15 8 10 15 16 12 14 15 12 12
18 13 13 11 6 5 3 1 2 3 3 1 2 4 2 2 3 2 2 2 4 3 2 1 2 2 7 7 7 9 9 10 6 5 7 9 19 19 18 21 23 20 16 14 9 11 6 7 14 15 15 17 18 18
8 14 6 7 4 5 3 5 3 2 2 2 1 4 3 3 3 2 3 4 2 2 2 1 1 2 3 5 8 9 12 14 12 13 15 16 9 8 13 18 19 13 15 15 16 10 11 6 10 15 15 14 14 16
15 8 4 6 4 2 4 2 2 3 2 2 1 3 2 2 3 4 3 2 2 3 2 2 3 4 3 6 8 10 12 13 10 9 14 14 17 16 17 18 19 17 14 20 22 18 13 13 8 10 12 14 14 11
6 5 3 4 4 4 3 3 3 1 1 1 1 4 3 3 3 3 3 2 2 6 3 4 4 2 4 6 3 7 11 12 12 9 13 12 13 16 18 17 17 18 20 20 18 16 16 16 11 4 12 14 14 16
3 4 4 4 4 3 4 3 4 3 3 4 2 3 3 3 3 2 3 3 2 3 3 4 4 3 1 2 5 9 10 12 11 8 8 11 12 16 18 19 18 19 24 25 25 23 19 16 18 14 2 8 18 18
4 3 6 5 2 4 4 4 6 5 4 4 4 3 3 3 3 3 2 4 3 3 3 3 0 1 2 4 3 6 12 16 17 11 11 11 16 15 14 10 10 19 26 22 21 20 20 21 18 16 13 8 23 24
3 5 4 3 3 3 3 2 3 4 3 4 3 3 3 3 3 3 2 3 3 8 6 4 2 4 4 6 10 14 16 15 15 11 14 17 18 23 23 16 16 22 23 22 22 20 19 19 16 14 14 11 10 23
4 3 5 4 3 3 3 4 4 5 5 3 3 3 4 5 3 3 3 11 13 10 8 6 6 6 6 6 9 12 16 17 16 14 10 18 19 21 26 25 23 22 24 23 24 21 21 19 20 21 19 14 9 19
4 3 3 5 4 3 5 6 4 3 2 3 4 3 3 2 3 5 13 17 13 11 13 12 8 7 5 6 13 14 16 20 16 8 9 6 10 17 25 25 25 25 25 26 24 24 23 19 17 15 17 10 5 4
4 4 3 4 5 4 4 4 2 2 4 4 5 6 6 5 8 11 16 20 18 15 13 13 10 8 6 7 10 14 14 17 17 14 3 5 11 18 20 22 23 23 23 24 25 26 26 24 24 24 23 18 11 6
3 3 4 3 4 4 4 4 7 7 4 5 8 10 6 4 10 18 16 16 15 12 12 10 8 8 9 9 9 9 9 12 15 16 15 17 20 17 17 18 20 21 23 23 24 26 25 24 25 24 25 26 24 17
3 5 4 5 3 2 4 4 3 3 3 3 3 3 3 3 3 3 6 12 13 10 6 5 6 5 9 11 10 12 13 12 13 15 16 17 21 20 15 16 17 20 21 22 22 24 25 23 22 24 24 27 27 26
3 3 2 2 1 3 3 4 3 4 3 3 3 5 3 3 3 3 6 9 11 9 7 6 8 11 14 15 12 14 15 15 15 15 14 14 17 21 19 14 15 16 18 21 22 20 21 24 25 25 26 27 28 27
Wind_Direction
265 270 276 281 291 294 298 301 311 320 326 330 330 330 328 331 331 329 295 338 283 261 284 262 270 264 270 197 223 309 341 348 350 342 288 316 290 315 312 300 267 219 184 238 224 222 261 176 152 189 220 223 218 257
260 264 270 276 283 289 294 299 305 316 321 323 325 323 322 322 323 317 289 310 312 246 259 297 278 263 253 248 250 224 244 305 276 335 5 340 327 318 314 287 310 306 169 254 207 229 239 199 260 249 191 223 241 240
257 262 266 271 278 282 284 292 299 312 317 319 318 318 317 316 316 306 293 302 310 270 293 292 262 295 286 260 237 193 250 201 227 199 208 236 253 180 263 261 308 297 303 240 321 303 311 303 291 221 196 210 238 250
253 258 263 269 276 280 281 287 295 308 315 318 316 317 317 315 313 309 295 288 265 273 280 281 301 304 286 286 255 217 218 186 133 143 186 250 271 209 251 271 283 264 290 245 256 290 329 297 274 259 256 255 268 269
249 254 258 265 271 273 277 282 292 305 311 315 312 313 313 312 314 305 302 295 235 213 286 298 301 289 306 305 281 238 206 196 179 201 214 247 241 251 274 275 258 211 215 199 245 246 242 259 283 259 264 281 293 294
247 250 254 259 265 269 273 279 292 303 310 313 308 308 308 307 316 329 329 72 110 204 270 311 309 305 317 325 286 189 190 163 175 178 224 247 261 162 267 259 242 245 250 242 306 277 252 265 299 309 293 288 302 312
240 247 253 255 260 263 271 281 294 303 310 312 306 307 304 297 288 245 240 230 241 324 263 301 297 280 305 6 346 65 148 167 146 196 215 231 241 139 248 259 272 287 281 274 265 268 276 308 294 299 292 316 317 303
233 242 253 254 255 260 270 282 296 305 311 315 313 307 298 286 287 271 315 348 242 212 207 291 279 313 347 351 342 339 106 90 217 232 223 214 242 203 254 248 277 278 294 299 296 10 76 264 309 305 309 330 319 310
226 231 245 249 252 258 271 285 300 310 318 322 319 308 99 159 209 257 293 337 152 177 288 258 298 296 329 301 263 257 157 204 195 231 215 194 226 236 241 272 322 320 285 299 334 146 322 324 330 330 342 333 315 322
221 228 239 243 247 254 266 288 306 316 331 331 354 171 149 190 290 281 186 147 85 84 170 250 260 262 335 287 285 4 198 242 242 226 162 219 258 266 285 292 276 270 301 274 315 334 326 344 353 343 347 335 328 330
218 230 230 237 240 248 262 289 315 338 349 16 14 354 302 315 198 194 227 190 134 208 219 246 240 259 260 261 254 217 238 205 268 193 222 228 314 317 323 313 354 265 212 91 137 298 349 333 344 354 347 342 346 350
215 222 226 233 236 241 240 263 326 12 356 308 290 304 301 290 209 262 239 104 209 219 201 234 244 220 268 260 263 301 265 312 255 145 239 18 274 338 339 296 295 88 134 114 106 54 13 11 357 356 347 341 343 348
208 215 224 230 231 222 224 233 279 329 336 119 180 268 115 272 41 226 289 295 271 214 246 247 289 206 287 326 303 312 283 245 339 344 1 23 325 338 334 320 298 90 119 121 111 119 44 12 7 11 357 357 352 357
204 211 223 225 217 189 217 224 236 324 194 207 203 304 182 199 246 208 195 224 244 201 281 265 253 211 202 289 302 286 293 301 343 13 14 328 328 322 311 305 349 76 119 118 143 153 79 32 18 16 19 9 0 1
196 206 211 203 184 190 198 188 180 175 215 249 237 234 223 259 240 225 213 21 304 264 311 313 285 137 149 334 314 321 316 37 24 354 303 318 312 311 358 355 0 9 108 173 154 142 67 47 37 21 19 23 14 11
189 170 190 185 175 183 180 179 179 156 245 249 243 284 279 43 324 344 1 320 281 308 340 29 8 360 33 35 26 14 3 28 328 310 311 314 328 338 344 346 353 353 318 195 272 133 138 80 54 46 26 31 23 18
175 163 168 164 165 166 173 168 172 214 243 236 247 235 218 252 229 251 138 297 315 60 21 49 332 3 46 44 31 31 335 308 307 313 317 335 330 334 337 346 356 351 328 11 83 115 118 127 87 58 37 30 33 28
139 149 150 156 158 146 168 201 240 203 224 232 230 262 209 162 127 347 326 324 33 26 79 120 339 29 44 41 349 336 324 328 324 313 322 337 330 339 346 344 350 344 352 354 73 78 114 129 117 98 81 49 43 37
152 151 160 161 158 165 180 196 209 245 224 226 247 244 128 96 20 58 36 21 58 57 87 49 54 42 21 12 335 342 345 344 328 324 325 330 341 345 347 355 1 344 358 357 20 68 87 104 146 104 86 65 56 39
145 160 164 173 177 196 228 220 191 196 241 232 262 67 124 123 131 49 57 36 47 59 50 49 48 16 341 314 352 355 342 332 328 331 338 340 348 352 350 354 351 344 350 355 26 54 85 85 102 120 97 84 67 52
141 149 151 162 187 239 274 272 197 212 221 189 174 140 127 86 72 58 48 19 57 39 87 87 33 10 354 0 13 346 337 345 339 331 332 337 342 350 349 353 359 359 357 357 0 6 90 106 115 113 112 107 94 84
139 150 128 180 217 217 233 237 212 263 116 217 327 147 135 134 146 120 117 52 61 49 79 87 348 334 345 8 2 350 346 348 346 345 350 349 348 353 354 353 355 353 347 346 350 3 25 133 129 119 114 124 122 107
143 160 161 178 222 150 247 209 196 206 189 215 182 144 125 129 133 121 80 114 99 116 106 94 71 14 347 356 4 1 358 357 346 357 355 352 347 350 353 357 358 353 348 344 344 348 17 24 180 148 128 134 147 153
129 169 211 189 164 212 219 217 211 231 148 130 230 141 123 131 148 80 98 101 110 124 89 80 50 352 356 11 6 358 357 359 359 1 8 2 355 351 351 352 356 358 350 337 341 354 3 11 41 180 158 143 141 127
115 230 149 204 185 218 199 184 180 184 212 187 226 143 140 114 110 111 131 148 147 116 118 97 81 30 347 327 336 341 12 20 12 345 358 6 358 358 357 358 1 9 2 357 353 351 353 5 4 354 338 187 156 145
189 231 180 198 215 200 212 179 168 182 203 191 187 127 82 90 96 139 144 149 156 126 150 139 92 25 352 2 333 339 29 28 22 6 359 15 6 354 347 349 353 358 2 1 353 345 341 341 345 339 342 346 170 155
216 223 214 233 234 206 226 194 129 142 202 182 173 118 103 119 134 149 126 119 121 149 154 147 131 85 57 19 26 65 37 30 26 14 37 27 22 17 5 353 0 351 355 355 355 351 341 332 329 325 327 336 202 171
229 247 215 190 215 213 220 160 174 169 200 196 124 97 127 149 137 141 141 153 157 161 143 110 90 77 59 41 69 66 43 35 36 42 41 27 23 17 12 5 4 6 359 358 359 358 352 345 338 335 327 302 297 198
236 227 208 228 207 208 200 189 200 198 182 135 105 95 103 75 129 125 147 167 171 141 116 96 87 79 59 39 103 69 55 43 39 30 18 2 355 350 5 4 1 5 3 0 3 9 7 6 1 350 334 297 275 162
241 197 206 215 184 191 214 150 134 71 60 92 99 102 90 65 73 134 128 117 103 102 105 96 85 68 47 35 101 79 61 50 48 47 32 2 348 353 6 11 5 7 10 11 9 11 21 22 22 21 22 21 23 58
261 184 194 230 203 175 165 114 89 95 95 92 115 121 116 125 62 62 83 108 110 108 103 95 83 53 41 43 38 122 73 53 52 47 42 32 26 22 23 23 10 16 18 16 17 18 18 19 18 14 16 19 19 28
205 211 191 189 224 218 119 119 83 82 119 107 133 135 113 98 98 25 41 120 119 128 131 110 106 84 61 55 91 105 100 84 62 47 38 33 30 28 31 34 23 23 22 26 25 25 27 25 25 26 23 21 23 28
213 229 234 173 25 199 103 96 106 126 121 136 125 145 90 98 114 142 102 114 112 102 100 97 89 98 83 71 80 133 96 79 67 52 39 35 29 26 30 37 43 32 32 35 33 32 33 33 32 32 34 35 34 33